Location: Góry Miechowskie
(50.3599°N, 20.1803°E)
Time: 12:52:22
(UTC+00:00)

Cosmos 1544 Rocket - Pass Details

Date: 15 June 2024
Orbit: 601 x 627 km, 82.5° (Epoch: 15 July)

Event Time Altitude Azimuth Distance (km) Brightness Sun altitude
Rises 00:02:20 0° 351° (N) 2,927 8.2 -14.1°
Reaches altitude 10° 00:04:36 10° 353° (N) 2,014 7.2 -14.0°
Maximum altitude 00:09:04 72° 78° (ENE) 660 3.8 -13.7°
Enters shadow 00:12:50 14° 163° (SSE) 1,738 5.4 -13.5°
